Weather in Ol'shany

Russia / Moscow Oblast     55°03′30″N   39°23′03″E
temp.,
°C
wind,
m/s
gust,
m/s
humid.,
%
clouds,
%
prec.,
mm/h
press.,
hPa
HPBL,
m
22 may, sun
sun2200:00+5ene368382 0.0 1006117
03:00+4ene4127082 0.0 1005391
06:00+5ne39789 0.0 1004316
09:00+9ne56545 0.0 10031013
12:00+12ne45417 0.0 10021885
15:00+12nne553512 0.0 10022121
18:00+10nne554732 0.0 10021788
21:00+4nne410655 0.0 1005552
23 may, mon
mon2300:000n26825 0.0 1006151
03:00−1nnw26879 0.0 1006127
06:00+2nw387413 0.0 1006349
09:00+7nnw585091 0.0 10051722
12:00+9nw5743100 0.0 10041890
15:00+12nw5840100 0.0 10032361
18:00+11wnw4951100 0.0 10032078
21:00+6wnw2464100 0.0 100484
24 may, tue
tue2400:00+4w3971100 0.0 1003194
03:00+5wnw31164100 0.0 1004379
06:00+5nw41059100 0.0 10041065
09:00+5nnw5969100 0.0 10061102
12:00+6nnw4663100 0.1 10071137
15:00+7nnw4559100 0.4 10081399
18:00+7nnw3566100 0.3 10101214
21:00+3nnw248867 0.4 101273
25 may, wed
wed2500:00+1nnw24965 0.0 101367
03:00−1nnw239729 0.0 101454
06:00+2nw25855 0.0 1015191
09:00+7nnw3452100 0.0 10151581
12:00+8wnw344899 0.0 10151671
15:00+11w454692 0.0 10151657
18:00+10w355485 0.0 10151300
21:00+6sw377998 0.0 1015161
26 may, thu
thu2600:00+5wsw388987 0.0 1015201
03:00+4sw259489 0.0 1014131
06:00+5wsw248589 0.0 1012145
09:00+12ssw226298 0.0 1010591
12:00+16s346197 0.0 1008975
15:00+18ssw3665100 0.3 1004843
18:00+12ssw3898100 2.3 1002394
21:00+12ssw3998100 5.9 999478